FW3192 Weather Reports


Display with metric or nautical units.
time (UTC)temp
F
wind
direction
speed
MPH
gust
MPH
rain 1hr
in
rain 24hr
in
rain mn
in
humidity
%
barometer
mb
20260509100016 57 153 2.0 3.0 0.00 0.00 0.00 86 1027.8
20260509094521 58 159 3.0 4.0 0.00 0.00 0.00 86 1027.7
20260509093002 58 148 3.0 4.0 0.00 0.00 0.00 86 1027.6
20260509091502 58 151 3.0 4.0 0.00 0.00 0.00 84 1027.5
20260509090001 59 155 4.0 6.0 0.00 0.00 0.00 83 1027.5
20260509084608 60 156 4.0 6.0 0.00 0.00 0.00 83 1027.4
20260509083059 61 163 6.0 9.0 0.00 0.00 0.00 82 1027.2
20260509081559 61 191 6.0 10.0 0.00 0.00 0.00 82 1027.1
20260509080059 62 209 6.0 12.0 0.00 0.00 0.00 83 1027.0
20260509074603 62 152 10.0 17.0 0.00 0.00 0.00 82 1027.0
20260509073138 62 215 10.0 14.0 0.00 0.00 0.00 81 1027.0
20260509071546 63 199 11.0 14.0 0.00 0.00 0.00 81 1027.0
20260509070034 62 235 9.0 14.0 0.00 0.00 0.00 81 1027.0
20260509064522 62 233 9.0 14.0 0.00 0.00 0.00 80 1027.0
20260509063113 62 211 8.0 14.0 0.00 0.00 0.00 80 1027.1
20260509061504 62 216 9.0 15.0 0.00 0.00 0.00 80 1026.9
20260509060003 62 204 9.0 13.0 0.00 0.00 0.00 80 1027.0
20260509054502 62 215 9.0 15.0 0.00 0.00 0.00 82 1027.0
20260509053105 62 229 9.0 14.0 0.00 0.00 0.00 81 1027.0
20260509051602 62 223 10.0 14.0 0.00 0.00 0.00 80 1027.0
20260509050058 62 199 10.0 12.0 0.00 0.00 0.00 81 1027.1
20260509044558 62 263 8.0 13.0 0.00 0.00 0.00 81 1027.1
20260509043041 62 233 7.0 13.0 0.00 0.00 0.00 82 1027.2
20260509041540 62 229 9.0 13.0 0.00 0.00 0.00 82 1027.4
20260509040038 61 223 5.0 9.0 0.00 0.00 0.00 84 1027.4
20260509034537 61 289 5.0 9.0 0.00 0.00 0.00 84 1027.5
20260509033034 62 248 5.0 10.0 0.00 0.00 0.00 83 1027.7
20260509031535 63 274 7.0 11.0 0.00 0.00 0.00 81 1027.8
20260509030035 62 242 5.0 11.0 0.00 0.00 0.00 83 1028.0
20260509024525 61 246 6.0 10.0 0.00 0.00 0.00 82 1028.4
20260509023008 61 256 6.0 9.0 0.00 0.00 0.00 83 1028.7
20260509021506 60 273 4.0 7.0 0.00 0.00 0.00 84 1029.0
20260509020003 60 237 3.0 7.0 0.00 0.00 0.00 83 1029.3
20260509014600 61 244 3.0 7.0 0.00 0.00 0.00 83 1029.5
20260509014503 61 253 3.0 7.0 0.00 0.00 0.00 83 1029.6
20260509013100 60 249 3.0 6.0 0.00 0.00 0.00 82 1029.6
20260509011557 60 256 3.0 6.0 0.00 0.00 0.00 82 1029.6
20260509010053 60 239 1.0 6.0 0.00 0.00 0.00 83 1029.7
20260509004553 60 227 1.0 5.0 0.00 0.00 0.00 85 1029.7
20260509003040 59 218 2.0 4.0 0.00 0.00 0.00 85 1029.7
20260509001531 59 159 1.0 5.0 0.00 0.00 0.00 86 1029.8
20260509000028 59 126 0.0 3.0 0.00 0.00 0.00 86 1029.9
20260508234526 59 2 0.0 0.0 0.00 0.00 0.00 89 1030.0
20260508233021 58 44 0.0 1.0 0.00 0.00 0.00 92 1029.9
20260508231517 56 3 0.0 1.0 0.00 0.00 0.00 93 1029.9
20260508230018 54 334 0.0 2.0 0.00 0.00 0.00 94 1029.8
20260508224509 53 16 0.0 3.0 0.00 0.00 0.00 95 1029.7
20260508223052 52 36 0.0 1.0 0.00 0.00 0.00 94 1029.5
20260508221555 51 34 0.0 0.0 0.00 0.00 0.00 94 1029.5
20260508220048 50 17 1.0 2.0 0.00 0.00 0.00 94 1029.4
20260508214548 50 22 0.0 2.0 0.00 0.00 0.00 94 1029.3
20260508213047 49 29 2.0 3.0 0.00 0.00 0.00 94 1029.2
20260508211546 49 337 0.0 0.0 0.00 0.00 0.00 94 1029.1
20260508210046 48 48 0.0 0.0 0.00 0.00 0.00 93 1029.0
20260508204545 48 35 0.0 0.0 0.00 0.00 0.00 93 1028.9
20260508203033 48 40 0.0 2.0 0.00 0.00 0.00 93 1028.9
20260508201534 47 40 2.0 4.0 0.00 0.00 0.00 93 1028.6
20260508200033 47 76 0.0 1.0 0.00 0.00 0.00 93 1028.5
20260508194533 47 48 0.0 2.0 0.00 0.00 0.00 93 1028.4
20260508193025 47 31 1.0 2.0 0.00 0.00 0.00 91 1028.3
20260508191533 48 93 1.0 3.0 0.00 0.00 0.00 92 1028.1
20260508190032 48 99 2.0 2.0 0.00 0.00 0.00 92 1028.1
20260508184520 48 90 0.0 1.0 0.00 0.00 0.00 91 1028.1
20260508183005 49 96 1.0 3.0 0.00 0.00 0.00 91 1028.1
20260508181503 50 72 0.0 0.0 0.00 0.00 0.00 91 1028.3
20260508180104 50 72 0.0 0.0 0.00 0.00 0.00 90 1028.3
20260508174608 51 67 0.0 2.0 0.00 0.00 0.00 89 1028.3
20260508173055 52 85 0.0 2.0 0.00 0.00 0.00 89 1028.4
20260508171552 53 141 2.0 4.0 0.00 0.00 0.00 89 1028.4
20260508170051 53 182 3.0 5.0 0.00 0.00 0.00 90 1028.4
20260508164550 53 154 3.0 0.0 0.00 0.00 0.00 89 1028.4
20260508163053 54 154 3.0 5.0 0.00 0.00 0.00 88 1028.3
20260508161530 55 184 4.0 7.0 0.00 0.00 0.00 88 1028.4
20260508160029 55 175 6.0 9.0 0.00 0.00 0.00 88 1028.4
20260508154510 54 172 3.0 4.0 0.00 0.00 0.00 88 1028.4
20260508153008 54 188 2.0 4.0 0.00 0.00 0.00 88 1028.5
20260508151554 54 172 3.0 5.0 0.00 0.00 0.00 87 1028.5
20260508150050 55 171 5.0 8.0 0.00 0.00 0.00 88 1028.6
20260508144550 55 167 6.0 8.0 0.00 0.00 0.00 88 1028.6
20260508143047 55 174 2.0 4.0 0.00 0.00 0.00 87 1028.7
20260508141610 55 164 3.0 4.0 0.00 0.00 0.00 87 1028.8
20260508140144 55 183 1.0 5.0 0.00 0.00 0.00 86 1028.8
20260508134554 55 181 5.0 8.0 0.00 0.00 0.00 86 1028.9
20260508133038 56 168 5.0 9.0 0.00 0.00 0.00 86 1029.1
20260508131524 56 172 6.0 8.0 0.00 0.00 0.00 85 1029.1
20260508130021 56 176 1.0 4.0 0.00 0.00 0.00 84 1029.2
20260508124521 57 159 3.0 5.0 0.00 0.00 0.00 84 1029.2
20260508123027 57 154 4.0 7.0 0.00 0.00 0.00 83 1029.3
20260508121518 57 154 6.0 8.0 0.00 0.00 0.00 84 1029.3
20260508120018 56 151 4.0 6.0 0.00 0.00 0.00 85 1029.2
20260508114517 56 145 3.0 5.0 0.00 0.00 0.00 84 1029.2
20260508113016 57 154 3.0 5.0 0.00 0.00 0.00 83 1029.1
20260508111518 58 154 4.0 7.0 0.00 0.00 0.00 81 1029.0
20260508110015 58 159 5.0 9.0 0.00 0.00 0.00 80 1029.0
20260508104519 59 217 9.0 14.0 0.00 0.00 0.00 83 1028.9
20260508103016 60 200 10.0 15.0 0.00 0.00 0.00 81 1028.9
20260508101518 60 202 11.0 16.0 0.00 0.00 0.00 77 1029.0